FW7166 Weather Reports


Display with metric or nautical units.
time (UTC)temp
F
wind
direction
speed
MPH
gust
MPH
rain 1hr
in
rain 24hr
in
rain mn
in
humidity
%
barometer
mb
20260509183837 58 233 1.0 12.0 0.00 0.00 0.00 46 1020.7
20260509183336 58 235 0.0 12.0 0.00 0.00 0.00 45 1020.5
20260509182835 59 257 0.0 12.0 0.00 0.00 0.00 42 1020.8
20260509182334 60 222 1.0 12.0 0.00 0.00 0.00 40 1020.7
20260509181833 61 197 1.0 12.0 0.00 0.00 0.00 33 1020.5
20260509181333 61 102 1.0 12.0 0.00 0.00 0.00 25 1020.5
20260509180833 61 98 1.0 12.0 0.00 0.00 0.00 25 1020.7
20260509180333 61 105 1.0 12.0 0.00 0.00 0.00 25 1020.6
20260509175832 61 88 0.0 12.0 0.00 0.00 0.00 25 1020.7
20260509175331 61 115 1.0 12.0 0.00 0.00 0.00 24 1020.6
20260509174830 62 102 1.0 12.0 0.00 0.00 0.00 24 1020.8
20260509174330 62 90 1.0 12.0 0.00 0.00 0.00 24 1020.8
20260509173830 62 110 2.0 12.0 0.00 0.00 0.00 23 1020.8
20260509173329 62 107 2.0 12.0 0.00 0.00 0.00 23 1020.7
20260509172829 62 85 0.0 12.0 0.00 0.00 0.00 22 1020.8
20260509172328 62 112 1.0 12.0 0.00 0.00 0.00 22 1020.8
20260509171827 62 128 0.0 12.0 0.00 0.00 0.00 23 1020.9
20260509170811 63 88 2.0 12.0 0.00 0.00 0.00 23 1021.1
20260509170311 63 100 3.0 12.0 0.00 0.00 0.00 23 1021.2
20260509165810 63 90 1.0 12.0 0.00 0.00 0.00 24 1020.9
20260509165310 63 103 4.0 12.0 0.00 0.00 0.00 23 1021.1
20260509164809 63 54 2.0 12.0 0.00 0.00 0.00 23 1021.0
20260509164309 64 118 3.0 12.0 0.00 0.00 0.00 23 1021.0
20260509163252 64 134 1.0 12.0 0.00 0.00 0.00 24 1021.0
20260509162236 65 134 1.0 12.0 0.00 0.00 0.00 23 1021.1
20260509161735 65 109 1.0 12.0 0.00 0.00 0.00 23 1021.1
20260509161235 65 122 0.0 12.0 0.00 0.00 0.00 23 1021.5
20260509160734 64 87 0.0 12.0 0.00 0.00 0.00 23 1021.2
20260509155717 64 125 2.0 12.0 0.00 0.00 0.00 24 1021.2
20260509155216 65 232 0.0 12.0 0.00 0.00 0.00 24 1021.2
20260509154716 65 165 2.0 12.0 0.00 0.00 0.00 23 1021.5
20260509153659 66 214 0.0 12.0 0.00 0.00 0.00 22 1021.2
20260509153159 66 207 1.0 12.0 0.00 0.00 0.00 22 1022.1
20260509152659 65 96 2.0 12.0 0.00 0.00 0.00 23 1021.8
20260509152158 65 119 0.0 12.0 0.00 0.00 0.00 24 1021.8
20260509151658 65 116 2.0 12.0 0.00 0.00 0.00 24 1021.8
20260509151157 65 69 1.0 12.0 0.00 0.00 0.00 23 1022.1
20260509150656 65 95 3.0 12.0 0.00 0.00 0.00 22 1022.0
20260509150155 66 153 1.0 12.0 0.00 0.00 0.00 24 1022.0
20260509145655 66 108 1.0 12.0 0.00 0.00 0.00 23 1022.2
20260509144641 65 232 0.0 12.0 0.00 0.00 0.00 23 1022.0
20260509144139 65 189 1.0 12.0 0.00 0.00 0.00 22 1022.0
20260509143638 65 123 3.0 12.0 0.00 0.00 0.00 24 1022.2
20260509142623 66 157 1.0 12.0 0.00 0.00 0.00 22 1022.4
20260509141052 65 125 1.0 12.0 0.00 0.00 0.00 24 1022.2
20260509140551 65 181 2.0 12.0 0.00 0.00 0.00 23 1022.8
20260509135545 65 113 1.0 12.0 0.00 0.00 0.00 25 1022.7
20260509135043 65 347 1.0 12.0 0.00 0.00 0.00 23 1022.8
20260509134544 65 103 2.0 12.0 0.00 0.00 0.00 24 1023.0
20260509134042 65 146 0.0 12.0 0.00 0.00 0.00 23 1023.0
20260509133542 65 117 1.0 12.0 0.00 0.00 0.00 22 1023.4
20260509133042 65 64 1.0 12.0 0.00 0.00 0.00 24 1023.3
20260509132541 65 114 4.0 12.0 0.00 0.00 0.00 23 1023.2
20260509132041 65 90 1.0 12.0 0.00 0.00 0.00 26 1023.3
20260509130512 65 134 2.0 12.0 0.00 0.00 0.00 23 1023.1
20260509125454 64 326 0.0 12.0 0.00 0.00 0.00 25 1023.5
20260509124954 64 326 0.0 12.0 0.00 0.00 0.00 25 1023.5
20260509124454 64 108 0.0 12.0 0.00 0.00 0.00 25 1023.7
20260509123954 65 59 1.0 12.0 0.00 0.00 0.00 25 1023.8
20260509123453 64 106 0.0 12.0 0.00 0.00 0.00 26 1023.9
20260509122953 64 49 0.0 12.0 0.00 0.00 0.00 24 1023.7
20260509122451 63 55 2.0 12.0 0.00 0.00 0.00 24 1023.8
20260509121950 64 27 3.0 12.0 0.00 0.00 0.00 24 1023.8
20260509121449 63 127 1.0 12.0 0.00 0.00 0.00 24 1023.9
20260509120432 64 32 2.0 12.0 0.00 0.00 0.00 24 1023.6
20260509115932 63 183 0.0 12.0 0.00 0.00 0.00 24 1023.9
20260509115433 63 116 3.0 12.0 0.00 0.00 0.00 25 1024.3
20260509114932 63 333 3.0 12.0 0.00 0.00 0.00 23 1024.0
20260509114432 63 52 1.0 12.0 0.00 0.00 0.00 24 1024.3
20260509113418 62 221 1.0 12.0 0.00 0.00 0.00 22 1024.1
20260509112918 63 181 2.0 12.0 0.00 0.00 0.00 23 1024.2
20260509112417 62 80 2.0 12.0 0.00 0.00 0.00 25 1024.4
20260509111917 62 141 1.0 12.0 0.00 0.00 0.00 23 1024.7
20260509111416 62 329 1.0 12.0 0.00 0.00 0.00 24 1024.4
20260509110915 63 36 0.0 12.0 0.00 0.00 0.00 25 1024.5
20260509110415 62 90 1.0 12.0 0.00 0.00 0.00 23 1024.6
20260509105913 62 1 0.0 12.0 0.00 0.00 0.00 24 1024.9
20260509105413 62 355 0.0 12.0 0.00 0.00 0.00 24 1024.7
20260509104914 61 345 1.0 12.0 0.00 0.00 0.00 25 1024.6
20260509104413 62 54 2.0 12.0 0.00 0.00 0.00 22 1025.0
20260509103913 62 28 0.0 12.0 0.00 0.00 0.00 23 1024.8
20260509103413 62 36 2.0 12.0 0.00 0.00 0.00 23 1025.1
20260509102912 62 87 3.0 12.0 0.00 0.00 0.00 22 1025.0
20260509102412 61 210 0.0 12.0 0.00 0.00 0.00 22 1025.0
20260509101911 62 79 1.0 12.0 0.00 0.00 0.00 21 1025.0
20260509101410 61 355 0.0 12.0 0.00 0.00 0.00 23 1025.0
20260509100909 62 50 2.0 12.0 0.00 0.00 0.00 20 1025.1
20260509100408 61 46 1.0 12.0 0.00 0.00 0.00 22 1025.2
20260509095907 61 61 1.0 12.0 0.00 0.00 0.00 20 1025.4
20260509095406 61 7 2.0 12.0 0.00 0.00 0.00 22 1025.4
20260509094905 61 126 1.0 12.0 0.00 0.00 0.00 22 1025.4
20260509094404 60 63 2.0 12.0 0.00 0.00 0.00 23 1025.4
20260509093903 59 118 0.0 12.0 0.00 0.00 0.00 21 1025.4
20260509093403 59 316 1.0 12.0 0.00 0.00 0.00 21 1025.4
20260509092347 60 73 1.0 12.0 0.00 0.00 0.00 20 1025.3
20260509091330 59 99 0.0 12.0 0.00 0.00 0.00 20 1025.4
20260509090314 60 69 2.0 12.0 0.00 0.00 0.00 20 1025.6
20260509085813 59 42 1.0 12.0 0.00 0.00 0.00 23 1025.6
20260509085313 58 131 1.0 12.0 0.00 0.00 0.00 24 1025.6
20260509084813 58 328 0.0 12.0 0.00 0.00 0.00 24 1025.5
20260509083758 59 66 2.0 12.0 0.00 0.00 0.00 24 1025.8
20260509083258 59 89 2.0 12.0 0.00 0.00 0.00 24 1025.8
20260509082758 59 105 1.0 12.0 0.00 0.00 0.00 27 1025.9
20260509082257 59 115 2.0 12.0 0.00 0.00 0.00 28 1025.9
20260509081757 58 47 0.0 12.0 0.00 0.00 0.00 29 1025.8
20260509081257 59 40 1.0 12.0 0.00 0.00 0.00 28 1025.7
20260509080757 58 103 2.0 12.0 0.00 0.00 0.00 29 1025.9
20260509080256 57 19 0.0 12.0 0.00 0.00 0.00 31 1026.0
20260509075756 56 42 1.0 12.0 0.00 0.00 0.00 30 1025.9
20260509075255 56 91 2.0 12.0 0.00 0.00 0.00 31 1026.1
20260509074754 56 358 1.0 12.0 0.00 0.00 0.00 32 1026.0
20260509073739 56 113 0.0 12.0 0.00 0.00 0.00 30 1026.1
20260509073238 56 66 1.0 12.0 0.00 0.00 0.00 30 1026.2
20260509072738 56 76 1.0 12.0 0.00 0.00 0.00 33 1025.8
20260509072237 55 104 0.0 12.0 0.00 0.00 0.00 31 1026.2
20260509071221 54 118 1.0 12.0 0.00 0.00 0.00 33 1026.4
20260509070721 54 92 1.0 12.0 0.00 0.00 0.00 33 1026.3
20260509070221 53 76 0.0 12.0 0.00 0.00 0.00 37 1026.7
20260509065721 53 102 1.0 12.0 0.00 0.00 0.00 35 1026.3
20260509065221 53 46 1.0 12.0 0.00 0.00 0.00 36 1026.3
20260509064205 53 81 0.0 12.0 0.00 0.00 0.00 38 1026.4
20260509063705 52 81 0.0 12.0 0.00 0.00 0.00 39 1026.5
20260509062133 50 76 1.0 12.0 0.00 0.00 0.00 41 1026.6
20260509061117 49 76 0.0 12.0 0.00 0.00 0.00 42 1026.5
20260509060617 49 45 1.0 12.0 0.00 0.00 0.00 43 1026.5
20260509060117 49 40 0.0 12.0 0.00 0.00 0.00 46 1026.3
20260509055617 48 40 0.0 12.0 0.00 0.00 0.00 46 1026.6
20260509054600 46 40 0.0 12.0 0.00 0.00 0.00 47 1026.5
20260509054059 45 40 0.0 12.0 0.00 0.00 0.00 49 1026.6
20260509053043 43 40 0.0 12.0 0.00 0.00 0.00 51 1026.9
20260509052542 42 40 0.0 12.0 0.00 0.00 0.00 52 1026.8
20260509052042 41 40 0.0 12.0 0.00 0.00 0.00 53 1026.5
20260509051541 41 40 0.0 12.0 0.00 0.00 0.00 56 1027.1
20260509051040 40 40 0.0 12.0 0.00 0.00 0.00 56 1026.8
20260509050540 40 40 0.0 12.0 0.00 0.00 0.00 57 1026.8
20260509050040 39 40 0.0 12.0 0.00 0.00 0.00 58 1027.1
20260509045539 39 40 0.0 12.0 0.00 0.00 0.00 58 1027.1
20260509045039 38 40 0.0 12.0 0.00 0.00 0.00 58 1027.0
20260509044539 38 40 0.0 12.0 0.00 0.00 0.00 58 1027.1
20260509044038 37 40 0.0 12.0 0.00 0.00 0.00 61 1027.1
20260509043537 36 40 0.0 12.0 0.00 0.00 0.00 63 1027.1
20260509043036 36 40 0.0 12.0 0.00 0.00 0.00 64 1027.1
20260509042536 35 40 0.0 12.0 0.00 0.00 0.00 66 1027.3
20260509042036 35 40 0.0 12.0 0.00 0.00 0.00 68 1027.0
20260509041535 34 40 0.0 12.0 0.00 0.00 0.00 69 1027.1
20260509041034 34 40 0.0 12.0 0.00 0.00 0.00 70 1027.0
20260509040534 33 40 0.0 12.0 0.00 0.00 0.00 70 1026.9
20260509040034 33 40 0.0 12.0 0.00 0.00 0.00 71 1027.0
20260509035018 32 40 0.0 12.0 0.00 0.00 0.00 71 1027.3
20260509034518 32 40 0.0 12.0 0.00 0.00 0.00 71 1027.3
20260509034017 32 40 0.0 12.0 0.00 0.00 0.00 71 1027.2
20260509033516 32 40 0.0 12.0 0.00 0.00 0.00 71 1027.1
20260509032500 32 40 0.0 12.0 0.00 0.00 0.00 70 1027.1
20260509031959 32 40 0.0 12.0 0.00 0.00 0.00 70 1027.4
20260509031458 32 40 0.0 12.0 0.00 0.00 0.00 69 1027.2
20260509030958 32 40 0.0 12.0 0.00 0.00 0.00 69 1027.3
20260509030457 33 40 0.0 12.0 0.00 0.00 0.00 69 1027.5
20260509025957 33 40 0.0 12.0 0.00 0.00 0.00 68 1027.3
20260509025456 33 40 0.0 12.0 0.00 0.00 0.00 68 1027.7
20260509024956 33 40 0.0 12.0 0.00 0.00 0.00 67 1027.6
20260509024455 33 40 0.0 12.0 0.00 0.00 0.00 67 1027.3
20260509022922 34 40 0.0 12.0 0.00 0.00 0.00 66 1027.4
20260509022421 34 40 0.0 12.0 0.00 0.00 0.00 65 1027.3
20260509021920 34 40 0.0 12.0 0.00 0.00 0.00 64 1027.2
20260509021419 35 40 0.0 12.0 0.00 0.00 0.00 64 1027.6
20260509020918 35 40 0.0 12.0 0.00 0.00 0.00 64 1027.4
20260509020417 35 40 0.0 12.0 0.00 0.00 0.00 64 1027.6
20260509015917 35 40 0.0 12.0 0.00 0.00 0.00 63 1027.7
20260509014902 36 40 0.0 12.0 0.00 0.00 0.00 62 1027.9
20260509014402 36 40 0.0 12.0 0.00 0.00 0.00 62 1027.8
20260509013901 36 40 0.0 12.0 0.00 0.00 0.00 61 1027.7
20260509013401 36 40 0.0 12.0 0.00 0.00 0.00 61 1027.8
20260509012900 37 40 0.0 12.0 0.00 0.00 0.00 61 1027.7
20260509012400 37 40 0.0 12.0 0.00 0.00 0.00 60 1027.7
20260509011900 37 40 0.0 12.0 0.00 0.00 0.00 60 1027.7
20260509011359 37 40 0.0 12.0 0.00 0.00 0.00 60 1027.9
20260509010859 37 40 0.0 12.0 0.00 0.00 0.00 60 1027.7
20260509010359 38 40 0.0 12.0 0.00 0.00 0.00 59 1027.7
20260509005342 38 40 0.0 12.0 0.00 0.00 0.00 58 1027.8
20260509004842 38 40 0.0 12.0 0.00 0.00 0.00 57 1027.5
20260509004341 39 40 0.0 12.0 0.00 0.00 0.00 57 1027.9
20260509002809 39 40 0.0 12.0 0.00 0.00 0.00 56 1027.6
20260509002308 40 40 0.0 12.0 0.00 0.00 0.00 56 1027.7
20260509001807 40 40 0.0 12.0 0.00 0.00 0.00 55 1027.7
20260509001307 40 40 0.0 12.0 0.00 0.00 0.00 55 1027.7
20260508235736 41 40 0.0 12.0 0.00 0.00 0.00 53 1027.6
20260508235235 41 40 0.0 12.0 0.00 0.00 0.00 52 1027.4
20260508234734 41 40 0.0 12.0 0.00 0.00 0.00 52 1027.6
20260508234233 41 40 0.0 12.0 0.00 0.00 0.00 51 1027.6
20260508233732 42 40 0.0 12.0 0.00 0.00 0.00 51 1027.5
20260508233232 42 40 0.0 12.0 0.00 0.00 0.00 50 1027.5
20260508232732 42 40 0.0 12.0 0.00 0.00 0.00 49 1027.2
20260508232230 43 40 0.0 12.0 0.00 0.00 0.00 49 1027.6
20260508231729 43 40 0.0 12.0 0.00 0.00 0.00 48 1027.6
20260508231229 43 40 0.0 12.0 0.00 0.00 0.00 48 1027.6
20260508230728 44 40 0.0 12.0 0.00 0.00 0.00 47 1027.4
20260508230228 44 40 0.0 12.0 0.00 0.00 0.00 47 1027.3
20260508225728 44 40 0.0 12.0 0.00 0.00 0.00 46 1027.3
20260508225228 45 40 0.0 12.0 0.00 0.00 0.00 46 1027.4
20260508224728 45 40 0.0 12.0 0.00 0.00 0.00 45 1027.2
20260508224228 45 40 0.0 12.0 0.00 0.00 0.00 44 1027.2
20260508223212 46 40 0.0 12.0 0.00 0.00 0.00 42 1027.4
20260508222711 47 40 0.0 12.0 0.00 0.00 0.00 42 1027.3
20260508222211 47 40 0.0 12.0 0.00 0.00 0.00 42 1027.2
20260508221711 48 40 0.0 12.0 0.00 0.00 0.00 40 1027.1
20260508221210 48 40 0.0 12.0 0.00 0.00 0.00 39 1027.2
20260508220709 48 25 0.0 12.0 0.00 0.00 0.00 39 1027.2
20260508215653 49 109 0.0 12.0 0.00 0.00 0.00 38 1027.2
20260508215153 49 56 0.0 12.0 0.00 0.00 0.00 37 1027.3
20260508214652 49 62 1.0 12.0 0.00 0.00 0.00 37 1027.4
20260508214151 49 94 0.0 12.0 0.00 0.00 0.00 37 1026.9
20260508213650 50 55 0.0 12.0 0.00 0.00 0.00 36 1027.2
20260508213150 50 71 0.0 12.0 0.00 0.00 0.00 36 1027.0
20260508212135 50 93 0.0 12.0 0.00 0.00 0.00 35 1027.0
20260508211634 50 65 1.0 12.0 0.00 0.00 0.00 35 1026.9
20260508211133 51 77 1.0 12.0 0.00 0.00 0.00 34 1026.9
20260508210632 51 83 0.0 12.0 0.00 0.00 0.00 34 1026.8
20260508210132 51 88 1.0 12.0 0.00 0.00 0.00 34 1026.7
20260508205632 51 123 2.0 12.0 0.00 0.00 0.00 34 1026.5
20260508205132 51 94 3.0 12.0 0.00 0.00 0.00 33 1026.9
20260508204632 51 57 2.0 12.0 0.00 0.00 0.00 33 1026.5
20260508204132 51 52 1.0 12.0 0.00 0.00 0.00 33 1026.6
20260508203631 52 96 2.0 12.0 0.00 0.00 0.00 33 1026.8
20260508203131 52 59 1.0 12.0 0.00 0.00 0.00 34 1026.7
20260508202631 52 92 2.0 12.0 0.00 0.00 0.00 35 1026.6
20260508202131 52 67 1.0 12.0 0.00 0.00 0.00 35 1026.7
20260508200600 53 29 2.0 12.0 0.00 0.00 0.00 35 1026.3
20260508195027 54 66 1.0 12.0 0.00 0.00 0.00 35 1026.3
20260508194011 54 46 1.0 12.0 0.00 0.00 0.00 34 1026.0
20260508193510 54 40 0.0 12.0 0.00 0.00 0.00 34 1025.8
20260508193009 54 69 1.0 12.0 0.00 0.00 0.00 34 1026.0
20260508192509 55 86 0.0 12.0 0.00 0.00 0.00 33 1025.7
20260508192009 55 40 0.0 12.0 0.00 0.00 0.00 33 1025.8
20260508191509 55 51 0.0 12.0 0.00 0.00 0.00 33 1025.5
20260508191008 55 52 2.0 12.0 0.00 0.00 0.00 32 1025.7
20260508190508 56 39 1.0 12.0 0.00 0.00 0.00 32 1025.7
20260508190008 56 58 0.0 12.0 0.00 0.00 0.00 32 1025.5
20260508185508 56 37 0.0 12.0 0.00 0.00 0.00 31 1025.4
20260508185008 57 41 1.0 12.0 0.00 0.00 0.00 30 1025.4
20260508184507 57 68 0.0 12.0 0.00 0.00 0.00 32 1025.3